{"data":{"norad_id":58863,"intl_designator":"2024-019L","name":"STARLINK-31149","alt_names":[],"object_type":"PAYLOAD","status":"ACTIVE","operator":null,"country":"US","launch_date":"2024-01-29","launch_site_code":"AFETR","launch_vehicle":null,"mission":null,"orbit_class":"UNKNOWN","rcs_meters":null,"size_class":null,"mass_kg":null,"dimensions":null,"purposes":["comms"],"wikipedia_slug":null,"has_3d_model":false,"image_url":null,"decayed_at":null,"tle_current":{"epoch":"2026-05-24T13:52:23.714400Z","epoch_age_seconds":108033,"freshness":"FRESH","line1":"1 58863U 24019L   26144.57805225  .00000673  00000+0  33974-4 0  9992","line2":"2 58863  43.0001 179.9112 0000861 263.1075  96.9679 15.27580947130692","mean_motion":15.27580947,"eccentricity":8.61e-5,"inclination_deg":43.0001,"raan_deg":179.9112,"arg_perigee_deg":263.1075,"mean_anomaly_deg":96.9679,"bstar":3.3974e-5,"rev_number":13069,"period_min":94.26669027445,"perigee_km":482.45551250372,"apogee_km":483.63700826116,"semimajor_km":6861.1832603824,"source":"CELESTRAK","updated_at":"2026-05-25T13:38:18.759383Z"}}}